Language: 


Des rapports , des résumés tant et plus, au choix de chacun....


Données Historiques de Météogheer
Journalier Rapport pour Janvier 3, 2018 Unitée:  Impériale    Métrique   Les deux
Suivant Jour »
Journalier Hebdomadaire Mensuel Annuel Sur mesure
  Max: Min: Moyenne:
Température: 54.5 °F 46 °F 49.6 °F
Point de rosée: 55.4 °F 37.4 °F 43.2 °F
Humidité: 98% 63% 77%
Vent: 39.4mph 6.9mph 19.1mph
Rafales: 45.9mph - -
Vent- - WSW
Pression: 29.6 in 29.2 in -
Pluie: 0.37 in    
Historical Graphs
 
 
Données tabulaires pour Janvier 3, 2018
Heure Température Point de rosée Pression Vent Vent Rafales Humidité Pluie Taux (Horaire) Conditions
00:03 51.4 °F 50 °F 29.4 in South 7.4 mph 11 mph 97% 0 in
00:04 51.4 °F 50 °F 29.4 in South 8.5 mph 11 mph 97% 0 in
00:09 51.6 °F 51.8 °F 29.4 in WSW 8.7 mph 14.8 mph 97% 0 in
00:14 51.8 °F 51.8 °F 29.4 in SSW 8.5 mph 15.4 mph 97% 0 in
00:20 52 °F 51.8 °F 29.4 in WSW 8.5 mph 15.4 mph 97% 0 in
00:25 52 °F 51.8 °F 29.4 in SW 14.8 mph 19.5 mph 97% 0 in
00:28 52 °F 51.8 °F 29.4 in SW 10.5 mph 19.5 mph 97% 0 in
00:33 52 °F 51.8 °F 29.4 in SSW 6.9 mph 14.8 mph 97% 0 in
00:34 52 °F 51.8 °F 29.4 in SW 10.7 mph 14.8 mph 97% 0 in
00:40 51.8 °F 51.8 °F 29.4 in SSW 9.8 mph 15.4 mph 98% 0.03 in
00:41 51.8 °F 51.8 °F 29.4 in SW 8.7 mph 15.4 mph 98% 0.04 in
00:42 51.8 °F 51.8 °F 29.4 in SW 17.2 mph 17.2 mph 98% 0.04 in
00:47 51.6 °F 51.8 °F 29.4 in SW 10.5 mph 17.2 mph 98% 0.05 in
00:48 51.6 °F 51.8 °F 29.4 in SSW 12.3 mph 17.2 mph 98% 0.05 in
00:53 51.6 °F 51.8 °F 29.4 in SW 12.3 mph 15.4 mph 98% 0.06 in
00:55 51.6 °F 51.8 °F 29.4 in SSW 14.3 mph 20.4 mph 98% 0.06 in
01:01 51.6 °F 51.8 °F 29.4 in SSW 8.7 mph 20.4 mph 98% 0.07 in
01:04 51.6 °F 51.8 °F 29.4 in SSW 10.3 mph 20.4 mph 98% 0.09 in
01:10 51.6 °F 51.8 °F 29.4 in WSW 9.4 mph 15.9 mph 98% 0.1 in
01:12 51.6 °F 51.8 °F 29.4 in SSW 8.9 mph 15.9 mph 98% 0.1 in
01:17 51.6 °F 51.8 °F 29.4 in SW 12.5 mph 15.9 mph 98% 0.11 in
01:21 51.8 °F 51.8 °F 29.4 in SSW 15.4 mph 23.3 mph 98% 0.11 in
01:26 51.8 °F 51.8 °F 29.3 in SSW 8.7 mph 23.3 mph 98% 0.11 in
01:36 52.2 °F 51.8 °F 29.3 in SSW 9.8 mph 19.2 mph 98% 0.13 in
01:39 52.2 °F 51.8 °F 29.3 in SSW 15.7 mph 22.4 mph 98% 0.12 in
01:42 52.3 °F 51.8 °F 29.3 in SW 11.9 mph 22.4 mph 98% 0.11 in
01:46 52.3 °F 51.8 °F 29.3 in WSW 17.4 mph 22.4 mph 98% 0.11 in
01:51 52.5 °F 51.8 °F 29.3 in SW 20.6 mph 23.9 mph 98% 0.1 in
01:53 52.5 °F 51.8 °F 29.3 in WSW 17.4 mph 23.9 mph 98% 0.1 in
01:58 52.7 °F 53.6 °F 29.3 in SSW 17.2 mph 23.3 mph 98% 0.09 in
02:00 52.9 °F 53.6 °F 29.3 in SW 12.8 mph 23.3 mph 98% 0.09 in
02:05 53.1 °F 53.6 °F 29.3 in WSW 10.1 mph 24.6 mph 98% 0.07 in
02:06 53.1 °F 53.6 °F 29.3 in WSW 15.2 mph 24.6 mph 98% 0.06 in
02:13 53.1 °F 53.6 °F 29.3 in SSW 18.6 mph 24.6 mph 98% 0.06 in
02:14 53.2 °F 53.6 °F 29.3 in SSW 15.9 mph 22.8 mph 98% 0.06 in
02:20 53.4 °F 53.6 °F 29.3 in SW 25.9 mph 25.9 mph 98% 0.06 in
02:22 53.6 °F 53.6 °F 29.3 in WSW 17.4 mph 25.9 mph 98% 0.06 in
02:28 53.6 °F 53.6 °F 29.2 in WSW 15.7 mph 25.9 mph 98% 0.05 in
02:29 53.6 °F 53.6 °F 29.2 in WSW 24.6 mph 25.9 mph 98% 0.05 in
02:33 53.8 °F 53.6 °F 29.2 in WSW 26.2 mph 26.2 mph 98% 0.03 in
02:38 54 °F 53.6 °F 29.2 in WSW 19.2 mph 26.2 mph 98% 0.02 in
02:40 54 °F 53.6 °F 29.2 in WSW 12.1 mph 26.2 mph 98% 0.02 in
02:47 54 °F 53.6 °F 29.2 in WSW 16.6 mph 26.6 mph 98% 0.05 in
02:48 54 °F 53.6 °F 29.2 in WSW 15.4 mph 26.6 mph 98% 0.06 in
02:53 54.1 °F 55.4 °F 29.2 in WSW 17.7 mph 27.7 mph 98% 0.1 in
02:57 54.1 °F 55.4 °F 29.2 in WSW 18.1 mph 27.7 mph 98% 0.12 in
03:03 54 °F 53.6 °F 29.2 in West 17.4 mph 22.4 mph 98% 0.15 in
03:05 54 °F 53.6 °F 29.2 in WSW 17.7 mph 22.4 mph 98% 0.15 in
03:10 54.3 °F 55.4 °F 29.2 in West 26.2 mph 37.4 mph 98% 0.15 in
03:12 54.5 °F 55.4 °F 29.2 in West 20.1 mph 39.4 mph 98% 0.16 in
03:16 54.5 °F 55.4 °F 29.2 in WSW 30 mph 39.4 mph 98% 0.17 in
03:21 54.3 °F 55.4 °F 29.2 in West 29.5 mph 35.3 mph 98% 0.18 in
03:23 54.3 °F 55.4 °F 29.2 in West 30.9 mph 35.3 mph 98% 0.18 in
03:28 54.1 °F 53.6 °F 29.2 in WNW 23.9 mph 41.6 mph 95% 0.18 in
03:32 54 °F 51.8 °F 29.2 in West 24.6 mph 41.6 mph 93% 0.18 in
03:37 53.6 °F 51.8 °F 29.2 in West 25.1 mph 45.9 mph 91% 0.18 in
03:38 53.4 °F 51.8 °F 29.2 in West 23 mph 45.9 mph 91% 0.18 in
03:39 53.4 °F 51.8 °F 29.2 in West 28.6 mph 45.9 mph 91% 0.18 in
03:48 53.2 °F 50 °F 29.2 in West 20.6 mph 28.6 mph 91% 0.15 in
03:50 53.1 °F 50 °F 29.2 in WSW 23.7 mph 30.6 mph 91% 0.13 in
03:55 53.1 °F 50 °F 29.2 in West 16.1 mph 30.6 mph 91% 0.1 in
04:01 53.1 °F 50 °F 29.3 in West 26.8 mph 28 mph 90% 0.06 in
04:07 53.1 °F 50 °F 29.3 in West 18.8 mph 30.6 mph 88% 0.06 in
04:08 53.1 °F 50 °F 29.3 in West 22.6 mph 30.6 mph 87% 0.06 in
04:14 53.1 °F 48.2 °F 29.2 in WSW 19.2 mph 32 mph 86% 0.03 in
04:15 52.9 °F 48.2 °F 29.2 in West 23.3 mph 32 mph 86% 0.03 in
04:20 53.1 °F 48.2 °F 29.2 in West 24.4 mph 32 mph 86% 0.01 in
04:25 53.1 °F 48.2 °F 29.2 in WSW 23.5 mph 32.4 mph 85% 0.01 in
04:30 52.9 °F 48.2 °F 29.2 in WSW 32.7 mph 32.7 mph 85% 0.01 in
04:31 52.9 °F 48.2 °F 29.2 in West 23.7 mph 32.7 mph 85% 0.01 in
04:36 52.7 °F 48.2 °F 29.2 in West 28.4 mph 34.4 mph 83% 0.01 in
04:40 52.7 °F 48.2 °F 29.2 in WSW 26.4 mph 34.4 mph 81% 0.01 in
04:44 52.5 °F 46.4 °F 29.2 in WSW 22.8 mph 34.4 mph 80% 0.01 in
04:49 52.3 °F 46.4 °F 29.2 in West 22.8 mph 32 mph 79% 0 in
04:51 52.3 °F 46.4 °F 29.2 in WSW 29.3 mph 30.2 mph 79% 0 in
04:56 52.3 °F 46.4 °F 29.2 in WSW 19.5 mph 29.8 mph 79% 0 in
04:59 52.3 °F 46.4 °F 29.2 in West 21.3 mph 29.8 mph 79% 0 in
05:04 52.3 °F 46.4 °F 29.2 in West 22.8 mph 30.9 mph 79% 0 in
05:09 52.3 °F 46.4 °F 29.2 in WSW 17.4 mph 37.6 mph 80% 0 in
05:10 52.3 °F 46.4 °F 29.2 in West 27.3 mph 37.6 mph 80% 0 in
05:15 52.3 °F 46.4 °F 29.2 in WSW 27.7 mph 35.3 mph 79% 0 in
05:20 52.3 °F 46.4 °F 29.2 in West 24.4 mph 37.6 mph 77% 0 in
05:21 52.3 °F 44.6 °F 29.2 in WSW 23.5 mph 37.6 mph 76% 0 in
05:26 52.2 °F 44.6 °F 29.2 in West 23 mph 37.6 mph 75% 0 in
05:28 52 °F 44.6 °F 29.2 in WSW 28.4 mph 30.6 mph 76% 0 in
05:33 52 °F 44.6 °F 29.2 in WSW 27.5 mph 32.4 mph 75% 0 in
05:38 51.8 °F 44.6 °F 29.2 in WSW 27.3 mph 32.4 mph 74% 0 in
05:40 51.8 °F 42.8 °F 29.2 in WSW 27.5 mph 28.4 mph 73% 0 in
05:45 51.6 °F 42.8 °F 29.2 in WSW 25.5 mph 30.2 mph 71% 0 in
05:46 51.6 °F 42.8 °F 29.2 in West 29.8 mph 30.2 mph 70% 0 in
05:51 51.4 °F 41 °F 29.2 in WSW 39.4 mph 39.4 mph 65% 0 in
05:53 51.4 °F 39.2 °F 29.2 in West 24.2 mph 39.4 mph 64% 0 in
05:58 51.3 °F 39.2 °F 29.2 in West 23 mph 39.4 mph 64% 0 in
05:59 51.3 °F 39.2 °F 29.2 in WSW 29.3 mph 39.4 mph 64% 0 in
06:01 51.3 °F 39.2 °F 29.2 in WSW 37.1 mph 37.1 mph 63% 0 in
06:04 51.1 °F 39.2 °F 29.2 in West 17.4 mph 37.8 mph 64% 0 in
06:09 51.1 °F 39.2 °F 29.2 in WSW 30.6 mph 37.8 mph 63% 0 in
06:10 51.1 °F 39.2 °F 29.2 in WSW 24.6 mph 37.8 mph 63% 0 in
06:15 50.7 °F 39.2 °F 29.2 in West 37.1 mph 37.1 mph 64% 0 in
06:16 50.7 °F 39.2 °F 29.2 in SW 22.4 mph 37.1 mph 64% 0 in
06:17 50.7 °F 39.2 °F 29.2 in WSW 25.7 mph 37.1 mph 64% 0 in
06:22 50.5 °F 39.2 °F 29.2 in West 26.6 mph 37.1 mph 65% 0 in
06:24 50.5 °F 39.2 °F 29.2 in West 28.4 mph 37.1 mph 65% 0 in
06:30 50.5 °F 39.2 °F 29.2 in West 26.2 mph 34.2 mph 65% 0 in
06:35 50.5 °F 39.2 °F 29.2 in West 13.9 mph 30.6 mph 66% 0 in
06:38 50.4 °F 41 °F 29.2 in WSW 15.2 mph 30.6 mph 68% 0 in
06:43 48.6 °F 41 °F 29.3 in West 23.7 mph 32 mph 72% 0 in
06:44 48.2 °F 39.2 °F 29.3 in SSW 15.4 mph 32 mph 71% 0 in
06:50 47.1 °F 39.2 °F 29.3 in West 10.5 mph 32 mph 73% 0 in
06:52 46.8 °F 39.2 °F 29.3 in West 19.7 mph 23.7 mph 74% 0 in
06:57 46.4 °F 39.2 °F 29.2 in West 14.5 mph 23.3 mph 76% 0 in
06:58 46.4 °F 39.2 °F 29.2 in WSW 22.6 mph 23.3 mph 76% 0 in
07:02 46.2 °F 39.2 °F 29.2 in West 10.7 mph 25.3 mph 78% 0 in
07:04 46.2 °F 39.2 °F 29.2 in WNW 13 mph 25.3 mph 78% 0 in
07:09 46.2 °F 41 °F 29.2 in WNW 8.1 mph 25.3 mph 79% 0 in
07:14 46.2 °F 41 °F 29.2 in West 17.7 mph 17.7 mph 80% 0 in
07:19 46.2 °F 41 °F 29.2 in West 19.9 mph 19.9 mph 81% 0 in
07:20 46.2 °F 41 °F 29.2 in West 15.4 mph 19.9 mph 81% 0 in
07:25 46.2 °F 41 °F 29.2 in WSW 16.8 mph 21.9 mph 81% 0 in
07:30 46 °F 41 °F 29.2 in West 11 mph 21.9 mph 82% 0 in
07:31 46 °F 41 °F 29.2 in West 12.8 mph 21.9 mph 82% 0 in
07:32 46 °F 41 °F 29.2 in West 10.3 mph 21.9 mph 82% 0 in
07:36 46.2 °F 41 °F 29.2 in WNW 23.7 mph 23.7 mph 82% 0 in
07:41 46.8 °F 41 °F 29.3 in WSW 20.6 mph 31.3 mph 78% 0 in
07:42 46.9 °F 41 °F 29.3 in West 24.6 mph 31.3 mph 78% 0 in
07:47 47.1 °F 41 °F 29.3 in WSW 23.9 mph 31.3 mph 77% 0 in
07:48 47.3 °F 41 °F 29.3 in WSW 24.2 mph 31.3 mph 76% 0 in
07:53 47.5 °F 41 °F 29.3 in West 17.7 mph 32.2 mph 76% 0 in
07:58 47.7 °F 41 °F 29.3 in West 22.8 mph 32.2 mph 76% 0 in
08:00 47.7 °F 41 °F 29.3 in West 19.7 mph 32.2 mph 76% 0 in
08:05 47.7 °F 41 °F 29.3 in West 20.8 mph 32.4 mph 75% 0 in
08:10 47.8 °F 39.2 °F 29.3 in West 23.5 mph 33.1 mph 71% 0 in
08:13 48 °F 39.2 °F 29.3 in WSW 29.8 mph 33.1 mph 70% 0 in
08:18 48 °F 39.2 °F 29.3 in West 23.3 mph 33.1 mph 70% 0 in
08:19 48 °F 39.2 °F 29.3 in West 25.9 mph 32.7 mph 70% 0 in
08:22 48 °F 39.2 °F 29.3 in WSW 18.1 mph 32.7 mph 70% 0 in
08:27 47.8 °F 39.2 °F 29.3 in West 31.8 mph 31.8 mph 71% 0 in
08:32 47.8 °F 39.2 °F 29.3 in West 12.5 mph 32 mph 68% 0 in
08:36 47.8 °F 39.2 °F 29.3 in West 17.4 mph 32 mph 68% 0 in
08:39 47.7 °F 37.4 °F 29.3 in WSW 24.4 mph 32 mph 69% 0 in
08:42 47.5 °F 37.4 °F 29.3 in West 19.5 mph 29.1 mph 69% 0 in
08:47 47.3 °F 37.4 °F 29.3 in WSW 15.4 mph 27.7 mph 69% 0 in
08:50 47.3 °F 37.4 °F 29.3 in WNW 19.7 mph 32.2 mph 69% 0 in
08:55 47.1 °F 37.4 °F 29.3 in West 27.5 mph 32.7 mph 70% 0 in
09:01 47.3 °F 37.4 °F 29.3 in West 33.1 mph 33.1 mph 69% 0 in
09:06 47.1 °F 37.4 °F 29.3 in WSW 17.4 mph 33.1 mph 70% 0 in
09:10 47.1 °F 37.4 °F 29.3 in West 22.8 mph 33.3 mph 70% 0 in
09:16 47.3 °F 37.4 °F 29.3 in West 12.3 mph 36.2 mph 69% 0 in
09:18 47.1 °F 37.4 °F 29.3 in West 16.1 mph 36.2 mph 70% 0 in
09:24 47.3 °F 37.4 °F 29.3 in West 22.1 mph 32.7 mph 69% 0 in
09:27 47.3 °F 37.4 °F 29.3 in West 12.5 mph 32.9 mph 69% 0 in
09:30 47.3 °F 37.4 °F 29.3 in West 17.7 mph 32.9 mph 69% 0 in
09:34 47.3 °F 37.4 °F 29.3 in West 13 mph 32.9 mph 69% 0 in
09:36 47.3 °F 37.4 °F 29.3 in WSW 27.7 mph 32.9 mph 69% 0 in
09:41 47.3 °F 37.4 °F 29.4 in WSW 27.5 mph 27.7 mph 69% 0 in
09:46 47.3 °F 37.4 °F 29.4 in West 22.8 mph 27.7 mph 69% 0 in
09:49 47.3 °F 37.4 °F 29.4 in WSW 25.9 mph 32.2 mph 69% 0 in
09:54 47.5 °F 37.4 °F 29.4 in West 24.4 mph 35.1 mph 69% 0 in
09:57 47.5 °F 37.4 °F 29.4 in WSW 13.4 mph 35.1 mph 68% 0 in
10:02 47.5 °F 37.4 °F 29.4 in West 27.1 mph 30.4 mph 69% 0 in
10:07 47.7 °F 37.4 °F 29.4 in WSW 23.7 mph 30.4 mph 69% 0 in
10:08 47.7 °F 39.2 °F 29.4 in West 28 mph 30.4 mph 70% 0 in
10:13 47.8 °F 39.2 °F 29.4 in West 23 mph 31.1 mph 70% 0 in
10:19 48 °F 39.2 °F 29.4 in West 24.6 mph 31.1 mph 70% 0 in
10:20 48 °F 39.2 °F 29.4 in West 32 mph 32 mph 70% 0 in
10:22 48.2 °F 39.2 °F 29.4 in West 24.2 mph 32 mph 70% 0 in
10:27 48.2 °F 39.2 °F 29.4 in West 24.2 mph 32 mph 70% 0 in
10:32 48 °F 39.2 °F 29.4 in West 32.2 mph 32.4 mph 70% 0 in
10:33 48 °F 39.2 °F 29.4 in WSW 29.5 mph 32.4 mph 70% 0 in
10:38 48.4 °F 39.2 °F 29.4 in West 29.8 mph 32.4 mph 70% 0 in
10:43 48.7 °F 39.2 °F 29.4 in West 22.6 mph 32.7 mph 68% 0 in
10:48 48.7 °F 39.2 °F 29.4 in West 22.6 mph 32.7 mph 68% 0 in
10:52 48.7 °F 39.2 °F 29.4 in WSW 26.2 mph 32.4 mph 68% 0 in
10:57 48.7 °F 39.2 °F 29.4 in WSW 31.1 mph 32.4 mph 67% 0 in
11:02 48.7 °F 39.2 °F 29.4 in West 30 mph 31.1 mph 68% 0 in
11:05 48.7 °F 39.2 °F 29.4 in WSW 20.4 mph 34.4 mph 67% 0 in
11:08 48.7 °F 39.2 °F 29.4 in West 19.7 mph 35.1 mph 67% 0 in
11:11 48.9 °F 39.2 °F 29.4 in WSW 25.3 mph 35.1 mph 67% 0 in
11:14 48.9 °F 39.2 °F 29.4 in West 23.9 mph 35.1 mph 68% 0 in
11:17 49.1 °F 39.2 °F 29.4 in West 28.4 mph 32.4 mph 68% 0 in
11:22 49.1 °F 39.2 °F 29.4 in West 22.4 mph 32.4 mph 68% 0 in
11:23 49.1 °F 39.2 °F 29.4 in WSW 19.5 mph 32.4 mph 68% 0 in
11:29 49.1 °F 39.2 °F 29.4 in WSW 16.3 mph 28 mph 68% 0 in
11:30 49.1 °F 39.2 °F 29.4 in WSW 15.2 mph 28 mph 68% 0 in
11:35 49.1 °F 39.2 °F 29.4 in West 22.4 mph 28.9 mph 69% 0 in
11:40 49.3 °F 39.2 °F 29.4 in WNW 24.2 mph 28.9 mph 67% 0 in
11:43 49.5 °F 39.2 °F 29.4 in WNW 24.2 mph 29.5 mph 68% 0 in
11:44 49.5 °F 39.2 °F 29.4 in WSW 23 mph 29.5 mph 68% 0 in
11:49 49.5 °F 39.2 °F 29.4 in WSW 30 mph 30 mph 67% 0 in
11:50 49.5 °F 39.2 °F 29.4 in WNW 12.8 mph 30 mph 67% 0 in
11:58 49.5 °F 39.2 °F 29.4 in WSW 23.3 mph 33.6 mph 65% 0 in
12:04 49.5 °F 39.2 °F 29.4 in West 22.1 mph 36.7 mph 66% 0 in
12:08 49.5 °F 37.4 °F 29.4 in WNW 14.5 mph 36.7 mph 64% 0 in
12:18 49.5 °F 39.2 °F 29.4 in West 22.6 mph 30.4 mph 66% 0 in
12:19 49.6 °F 39.2 °F 29.4 in West 15.9 mph 30.4 mph 67% 0 in
12:24 49.5 °F 39.2 °F 29.4 in WNW 13 mph 28.4 mph 67% 0 in
12:26 49.5 °F 39.2 °F 29.5 in West 30.4 mph 30.4 mph 66% 0 in
12:34 49.6 °F 39.2 °F 29.5 in WSW 30.9 mph 32 mph 66% 0 in
12:40 49.5 °F 39.2 °F 29.5 in West 30.6 mph 32.2 mph 66% 0 in
12:46 49.5 °F 39.2 °F 29.5 in West 13.2 mph 30.6 mph 66% 0 in
12:51 49.6 °F 39.2 °F 29.5 in WSW 25.3 mph 28.9 mph 66% 0 in
12:56 49.6 °F 39.2 °F 29.5 in West 11 mph 28.9 mph 66% 0 in
12:57 49.6 °F 39.2 °F 29.5 in West 11 mph 28.9 mph 66% 0 in
13:02 49.8 °F 41 °F 29.5 in West 21 mph 28.4 mph 68% 0 in
13:06 49.6 °F 39.2 °F 29.5 in West 25.5 mph 25.5 mph 68% 0 in
13:10 49.6 °F 39.2 °F 29.5 in West 18.1 mph 27.7 mph 69% 0 in
13:12 49.6 °F 41 °F 29.5 in West 23 mph 27.7 mph 70% 0 in
13:17 49.6 °F 41 °F 29.5 in WSW 19 mph 32.2 mph 70% 0 in
13:20 49.5 °F 41 °F 29.5 in WSW 18.1 mph 32.2 mph 70% 0 in
13:24 49.5 °F 39.2 °F 29.5 in WSW 22.8 mph 30.6 mph 69% 0 in
13:29 49.5 °F 41 °F 29.5 in West 16.8 mph 28.6 mph 71% 0 in
13:31 49.5 °F 41 °F 29.5 in WSW 17.4 mph 26.4 mph 71% 0 in
13:36 49.5 °F 41 °F 29.5 in WNW 20.8 mph 26.6 mph 70% 0 in
13:41 49.5 °F 41 °F 29.5 in West 24.4 mph 27.1 mph 70% 0 in
13:43 49.5 °F 41 °F 29.5 in West 26.4 mph 27.1 mph 70% 0 in
13:48 49.6 °F 41 °F 29.5 in West 17.7 mph 27.7 mph 71% 0 in
13:49 49.6 °F 41 °F 29.5 in WNW 24.6 mph 27.7 mph 71% 0 in
13:53 49.8 °F 41 °F 29.5 in West 22.6 mph 27.7 mph 71% 0 in
13:55 49.8 °F 41 °F 29.5 in West 17.7 mph 27.5 mph 71% 0 in
14:00 49.8 °F 41 °F 29.5 in West 21.5 mph 27.7 mph 70% 0 in
14:04 50 °F 41 °F 29.5 in WSW 16.1 mph 32.7 mph 71% 0 in
14:09 50 °F 41 °F 29.5 in WSW 20.6 mph 32.7 mph 71% 0 in
14:14 50 °F 41 °F 29.5 in West 21.9 mph 30.6 mph 71% 0 in
14:17 50 °F 41 °F 29.5 in West 20.1 mph 30.6 mph 71% 0 in
14:19 50 °F 42.8 °F 29.5 in WSW 23.3 mph 30.6 mph 72% 0 in
14:24 50 °F 42.8 °F 29.5 in WSW 20.6 mph 30.9 mph 72% 0 in
14:29 50.2 °F 41 °F 29.5 in West 27.3 mph 30.9 mph 71% 0 in
14:31 50.2 °F 41 °F 29.5 in West 14.8 mph 30.9 mph 71% 0 in
14:32 50.4 °F 42.8 °F 29.5 in WSW 19.7 mph 30.9 mph 72% 0 in
14:37 50.4 °F 42.8 °F 29.5 in West 25.5 mph 30.2 mph 72% 0 in
14:42 50.2 °F 41 °F 29.5 in West 23.7 mph 26.8 mph 71% 0 in
14:45 50.2 °F 41 °F 29.5 in West 22.6 mph 30.4 mph 71% 0 in
14:46 50.2 °F 41 °F 29.5 in West 18.8 mph 30.4 mph 71% 0 in
14:50 50.4 °F 42.8 °F 29.5 in West 20.8 mph 30.4 mph 72% 0 in
14:55 50.4 °F 42.8 °F 29.5 in West 19.7 mph 33.3 mph 71% 0 in
15:00 50.2 °F 42.8 °F 29.5 in West 27.1 mph 33.3 mph 72% 0 in
15:01 50.2 °F 42.8 °F 29.5 in West 15.4 mph 33.3 mph 72% 0 in
15:02 50.2 °F 42.8 °F 29.5 in West 23.9 mph 33.3 mph 72% 0 in
15:07 50.2 °F 42.8 °F 29.5 in WNW 12.1 mph 30.2 mph 72% 0 in
15:09 50.2 °F 41 °F 29.5 in West 22.6 mph 35.1 mph 71% 0 in
15:14 50.2 °F 42.8 °F 29.5 in WSW 22.1 mph 35.1 mph 72% 0 in
15:15 50.2 °F 42.8 °F 29.5 in West 26.6 mph 35.1 mph 73% 0 in
15:17 50.2 °F 42.8 °F 29.5 in WSW 22.6 mph 35.1 mph 72% 0 in
15:25 50.2 °F 42.8 °F 29.5 in West 23.3 mph 32.9 mph 72% 0 in
15:27 50.2 °F 42.8 °F 29.6 in West 15.2 mph 32.9 mph 72% 0 in
15:32 50.2 °F 42.8 °F 29.6 in WNW 23.5 mph 30.6 mph 72% 0 in
15:35 50.2 °F 42.8 °F 29.6 in WSW 23.5 mph 30.6 mph 72% 0 in
15:38 50 °F 42.8 °F 29.6 in WSW 20.4 mph 28.4 mph 72% 0 in
15:40 50 °F 42.8 °F 29.6 in West 21.9 mph 26.2 mph 73% 0 in
15:45 50 °F 42.8 °F 29.6 in West 17.9 mph 26.2 mph 73% 0 in
15:46 50 °F 42.8 °F 29.6 in West 16.3 mph 26.2 mph 73% 0 in
15:51 50 °F 42.8 °F 29.6 in WSW 22.4 mph 28.9 mph 73% 0 in
15:57 50 °F 42.8 °F 29.5 in West 24.2 mph 28.9 mph 72% 0 in
16:00 50 °F 42.8 °F 29.5 in SW 27.3 mph 28 mph 73% 0 in
16:04 50 °F 42.8 °F 29.5 in West 19.2 mph 27.7 mph 73% 0 in
16:09 49.8 °F 42.8 °F 29.5 in West 17.4 mph 29.5 mph 74% 0 in
16:13 49.6 °F 42.8 °F 29.6 in WSW 17 mph 29.8 mph 74% 0 in
16:18 49.5 °F 42.8 °F 29.6 in West 25.1 mph 29.8 mph 74% 0 in
16:20 49.5 °F 42.8 °F 29.6 in WSW 20.4 mph 29.8 mph 74% 0 in
16:24 49.5 °F 42.8 °F 29.6 in WSW 12.5 mph 28.9 mph 74% 0 in
16:29 49.5 °F 42.8 °F 29.6 in WSW 19.2 mph 28 mph 74% 0 in
16:32 49.5 °F 42.8 °F 29.6 in West 12.5 mph 28 mph 74% 0 in
16:41 49.5 °F 42.8 °F 29.6 in WSW 13.2 mph 22.4 mph 74% 0 in
16:42 49.5 °F 42.8 °F 29.6 in WSW 18.6 mph 22.4 mph 74% 0 in
16:46 49.5 °F 42.8 °F 29.6 in WSW 22.6 mph 25.3 mph 74% 0 in
16:51 49.3 °F 42.8 °F 29.6 in WSW 17.4 mph 25.3 mph 75% 0 in
16:53 49.3 °F 42.8 °F 29.6 in WSW 15.2 mph 25.3 mph 74% 0 in
16:54 49.3 °F 42.8 °F 29.6 in WSW 13.2 mph 23.5 mph 75% 0 in
16:59 49.3 °F 42.8 °F 29.6 in WSW 22.1 mph 24.6 mph 75% 0 in
17:01 49.3 °F 42.8 °F 29.6 in WSW 17.7 mph 24.6 mph 75% 0 in
17:07 49.3 °F 42.8 °F 29.6 in West 14.1 mph 25.3 mph 75% 0 in
17:09 49.3 °F 42.8 °F 29.6 in West 17.9 mph 25.3 mph 75% 0 in
17:13 49.1 °F 42.8 °F 29.6 in WSW 19.9 mph 25.3 mph 75% 0 in
17:18 49.1 °F 42.8 °F 29.6 in WSW 19.7 mph 26.8 mph 75% 0 in
17:23 48.9 °F 42.8 °F 29.6 in West 13.2 mph 26.8 mph 75% 0 in
17:26 48.9 °F 42.8 °F 29.6 in West 17.7 mph 24.6 mph 75% 0 in
17:32 48.9 °F 42.8 °F 29.6 in WSW 17.2 mph 24.6 mph 75% 0 in
17:37 48.7 °F 42.8 °F 29.6 in WSW 23 mph 23.9 mph 75% 0 in
17:42 48.7 °F 42.8 °F 29.6 in WSW 13 mph 23.7 mph 75% 0 in
17:47 48.6 °F 42.8 °F 29.6 in WSW 17.2 mph 23.7 mph 75% 0 in
17:48 48.6 °F 42.8 °F 29.6 in WSW 13.2 mph 23.7 mph 75% 0 in
17:52 48.6 °F 42.8 °F 29.6 in WSW 15.4 mph 23.7 mph 75% 0 in
17:57 48.4 °F 41 °F 29.6 in WSW 20.6 mph 23.5 mph 76% 0 in
17:58 48.4 °F 41 °F 29.6 in WSW 19.5 mph 23.5 mph 76% 0 in
18:03 48.6 °F 42.8 °F 29.6 in WSW 17.4 mph 25.3 mph 75% 0 in
18:12 48.4 °F 41 °F 29.6 in WSW 16.8 mph 24.4 mph 75% 0 in
18:17 48.4 °F 41 °F 29.6 in WSW 10.7 mph 24.4 mph 75% 0 in
18:22 48.4 °F 41 °F 29.6 in WSW 17.7 mph 22.8 mph 75% 0 in
18:26 48.2 °F 41 °F 29.6 in WSW 18.1 mph 22.6 mph 75% 0 in
18:31 48.2 °F 41 °F 29.6 in WSW 17.2 mph 24.4 mph 74% 0 in
18:32 48.2 °F 41 °F 29.6 in WSW 15.9 mph 24.4 mph 74% 0 in
18:37 48.4 °F 41 °F 29.6 in WSW 17.4 mph 24.4 mph 74% 0 in
18:38 48.4 °F 41 °F 29.6 in West 19.7 mph 24.4 mph 74% 0 in
18:44 48 °F 41 °F 29.6 in WSW 10.3 mph 24.4 mph 75% 0 in
18:46 48 °F 41 °F 29.6 in West 14.5 mph 24.4 mph 75% 0 in
18:51 47.8 °F 41 °F 29.6 in WSW 22.1 mph 25.1 mph 75% 0 in
18:53 47.8 °F 41 °F 29.6 in WSW 23 mph 25.1 mph 75% 0 in
18:54 47.8 °F 41 °F 29.6 in WSW 20.4 mph 25.1 mph 75% 0 in
18:59 47.8 °F 41 °F 29.6 in West 15.4 mph 25.1 mph 75% 0 in
19:01 48 °F 41 °F 29.6 in WSW 15.9 mph 24.2 mph 75% 0 in
19:06 48.2 °F 41 °F 29.6 in West 23.5 mph 26.6 mph 74% 0 in
19:09 48 °F 41 °F 29.6 in WSW 15.2 mph 26.6 mph 75% 0 in
19:14 48 °F 41 °F 29.6 in West 15.4 mph 26.6 mph 75% 0 in
19:19 48.2 °F 41 °F 29.6 in WSW 19.9 mph 23.9 mph 74% 0 in
19:22 48.2 °F 41 °F 29.6 in West 17.2 mph 24.6 mph 74% 0 in
19:27 48.2 °F 41 °F 29.6 in West 17.4 mph 24.6 mph 74% 0 in
19:29 48.2 °F 41 °F 29.6 in WSW 13.9 mph 24.6 mph 74% 0 in
19:32 48.2 °F 41 °F 29.6 in WSW 19.2 mph 21.9 mph 74% 0 in
19:37 48.2 °F 41 °F 29.6 in West 17.4 mph 22.1 mph 75% 0 in
19:40 48.4 °F 41 °F 29.6 in WSW 17.4 mph 22.1 mph 75% 0 in
19:45 48.6 °F 42.8 °F 29.6 in WSW 24.2 mph 27.3 mph 75% 0 in
19:48 48.6 °F 42.8 °F 29.6 in WSW 10.7 mph 27.3 mph 75% 0 in
19:54 48.6 °F 42.8 °F 29.6 in WSW 22.8 mph 27.3 mph 75% 0 in
19:57 48.7 °F 42.8 °F 29.6 in WSW 14.1 mph 25.7 mph 75% 0 in
20:04 48.6 °F 42.8 °F 29.6 in West 22.4 mph 25.5 mph 75% 0 in
20:09 48.6 °F 42.8 °F 29.6 in West 13 mph 23 mph 75% 0 in
20:13 48.6 °F 42.8 °F 29.6 in West 18.6 mph 23 mph 75% 0 in
20:19 48.4 °F 41 °F 29.6 in WSW 12.5 mph 23.3 mph 76% 0 in
20:20 48.4 °F 41 °F 29.6 in WSW 13 mph 23.3 mph 76% 0 in
20:25 48.4 °F 41 °F 29.6 in West 12.3 mph 21.3 mph 76% 0 in
20:28 48.4 °F 41 °F 29.6 in West 17.7 mph 17.9 mph 76% 0 in
20:29 48.4 °F 41 °F 29.6 in West 27.3 mph 27.3 mph 76% 0 in
20:33 48.6 °F 42.8 °F 29.6 in WSW 19.2 mph 27.5 mph 76% 0 in
20:38 48.6 °F 42.8 °F 29.6 in WSW 10.7 mph 27.5 mph 76% 0 in
20:40 48.4 °F 41 °F 29.6 in WSW 12.8 mph 25.5 mph 76% 0 in
20:41 48.4 °F 41 °F 29.6 in WSW 11 mph 25.5 mph 76% 0 in
20:46 48.4 °F 41 °F 29.6 in WSW 13.2 mph 25.5 mph 76% 0 in
20:52 48.6 °F 42.8 °F 29.6 in West 19.5 mph 23.3 mph 76% 0 in
20:57 48.4 °F 41 °F 29.6 in West 13 mph 23.3 mph 76% 0 in
20:58 48.4 °F 41 °F 29.6 in WSW 22.4 mph 27.1 mph 76% 0 in
20:59 48.4 °F 41 °F 29.6 in West 14.5 mph 27.1 mph 76% 0 in
21:05 48.6 °F 42.8 °F 29.6 in WSW 21.5 mph 27.1 mph 76% 0 in
21:10 48.6 °F 42.8 °F 29.6 in West 11 mph 22.8 mph 76% 0 in
21:15 48.6 °F 42.8 °F 29.6 in WSW 11 mph 25.5 mph 76% 0 in
21:20 48.6 °F 42.8 °F 29.6 in WSW 15.4 mph 25.5 mph 76% 0 in
21:25 48.4 °F 41 °F 29.6 in WSW 16.1 mph 22.8 mph 76% 0 in
21:28 48.4 °F 41 °F 29.6 in West 12.1 mph 22.8 mph 76% 0 in
21:33 48.4 °F 42.8 °F 29.6 in West 19.2 mph 22.8 mph 77% 0 in
21:34 48.4 °F 42.8 °F 29.6 in WSW 17.4 mph 22.8 mph 77% 0 in
21:38 48.4 °F 42.8 °F 29.6 in West 15.2 mph 19.9 mph 77% 0 in
21:44 48.4 °F 42.8 °F 29.6 in WSW 9.8 mph 17.2 mph 77% 0 in
21:48 48.4 °F 41 °F 29.6 in West 13.2 mph 23.3 mph 76% 0 in
21:53 48.4 °F 41 °F 29.6 in West 12.8 mph 23.3 mph 76% 0 in
21:54 48.6 °F 42.8 °F 29.6 in West 15.4 mph 23.3 mph 76% 0 in
21:55 48.6 °F 42.8 °F 29.6 in West 15.4 mph 23.3 mph 76% 0 in
22:01 48.6 °F 42.8 °F 29.6 in West 13 mph 23 mph 76% 0 in
22:02 48.6 °F 42.8 °F 29.6 in West 15.2 mph 23 mph 76% 0 in
22:07 48.6 °F 42.8 °F 29.6 in West 19.5 mph 22.6 mph 75% 0 in
22:08 48.6 °F 42.8 °F 29.6 in WSW 14.8 mph 22.6 mph 75% 0 in
22:13 48.6 °F 42.8 °F 29.6 in WSW 12.8 mph 22.6 mph 75% 0 in
22:17 48.4 °F 41 °F 29.6 in WSW 12.8 mph 18.8 mph 75% 0 in
22:22 48.2 °F 41 °F 29.6 in WSW 14.8 mph 16.8 mph 76% 0 in
22:23 48.2 °F 41 °F 29.6 in WSW 11 mph 16.8 mph 76% 0 in
22:28 48 °F 41 °F 29.6 in West 11.9 mph 16.8 mph 76% 0 in
22:33 47.8 °F 42.8 °F 29.6 in West 12.5 mph 17.2 mph 77% 0 in
22:42 47.7 °F 41 °F 29.6 in WSW 8.5 mph 17 mph 77% 0 in
22:44 47.7 °F 41 °F 29.6 in WSW 15.2 mph 17 mph 77% 0 in
22:49 47.7 °F 41 °F 29.6 in West 8.7 mph 18.1 mph 77% 0 in
22:51 47.7 °F 41 °F 29.6 in West 12.5 mph 18.1 mph 77% 0 in
22:57 47.5 °F 41 °F 29.6 in West 10.7 mph 18.1 mph 78% 0 in
23:02 47.3 °F 41 °F 29.6 in WSW 6.9 mph 15.4 mph 78% 0 in
23:10 47.3 °F 42.8 °F 29.6 in West 10.5 mph 15.9 mph 79% 0 in
23:14 47.5 °F 42.8 °F 29.6 in WSW 13.2 mph 19.7 mph 80% 0 in
23:16 47.5 °F 42.8 °F 29.6 in West 12.3 mph 19.7 mph 80% 0 in
23:22 47.5 °F 42.8 °F 29.6 in West 7.6 mph 17.6 mph 80% 0 in
23:23 47.5 °F 42.8 °F 29.6 in West 16.3 mph 17.6 mph 80% 0 in
23:25 47.5 °F 42.8 °F 29.6 in West 9.8 mph 19.9 mph 80% 0 in
23:31 47.3 °F 42.8 °F 29.6 in WSW 10.1 mph 19.9 mph 81% 0 in
23:36 47.3 °F 42.8 °F 29.6 in West 11 mph 17 mph 81% 0 in
23:41 47.3 °F 42.8 °F 29.6 in West 12.8 mph 17 mph 81% 0 in
23:46 47.3 °F 42.8 °F 29.6 in West 7.8 mph 15.2 mph 81% 0 in
23:51 46.9 °F 42.8 °F 29.6 in WSW 12.1 mph 13.2 mph 82% 0 in
23:54 47.1 °F 42.8 °F 29.6 in West 8.1 mph 14.1 mph 82% 0 in
23:57 46.9 °F 42.8 °F 29.6 in WSW 10.7 mph 14.1 mph 82% 0 in
Données Historique de Météo Turbie

Mise a jour : 20/05/2018 19:46:12
Généré par Cumulus 1.9.4 (1099)